Time,TemperatureF,DewpointF,PressureIn,WindDirection,WindDirectionDegrees,WindSpeedMPH,WindSpeedGustMPH,Humidity,HourlyPrecipIn,Conditions,Clouds,dailyrainin,SoftwareType,DateUTC
2013-06-23 00:01:00,47.0,-99.9,29.74,NNE,26,5.0,9.0,-999,-99.99,,,-99.99,,2013-06-23 04:01:00,
2013-06-23 00:11:00,46.0,-99.9,29.74,North,3,8.0,13.0,-999,-99.99,,,-99.99,,2013-06-23 04:11:00,
2013-06-23 00:21:00,46.0,-99.9,29.73,North,1,6.0,11.0,-999,-99.99,,,-99.99,,2013-06-23 04:21:00,
2013-06-23 00:31:00,46.0,-99.9,29.73,NNE,13,6.0,13.0,-999,-99.99,,,-99.99,,2013-06-23 04:31:00,
2013-06-23 00:42:00,46.0,-99.9,29.73,North,5,6.0,12.0,-999,-99.99,,,-99.99,,2013-06-23 04:42:00,
2013-06-23 00:52:00,46.0,-99.9,29.73,NNE,17,6.0,12.0,-999,-99.99,,,-99.99,,2013-06-23 04:52:00,
2013-06-23 01:01:00,46.0,-99.9,29.72,North,358,2.0,12.0,-999,-99.99,,,-99.99,,2013-06-23 05:01:00,
2013-06-23 01:11:00,46.0,-99.9,29.72,North,8,5.0,11.0,-999,-99.99,,,-99.99,,2013-06-23 05:11:00,
2013-06-23 01:22:00,46.0,-99.9,29.72,North,5,5.0,10.0,-999,-99.99,,,-99.99,,2013-06-23 05:22:00,
2013-06-23 01:32:00,46.0,-99.9,29.72,North,10,5.0,9.0,-999,-99.99,,,-99.99,,2013-06-23 05:32:00,
2013-06-23 01:42:00,47.0,-99.9,29.72,North,359,5.0,10.0,-999,-99.99,,,-99.99,,2013-06-23 05:42:00,
2013-06-23 01:52:00,47.0,-99.9,29.72,North,5,6.0,10.0,-999,-99.99,,,-99.99,,2013-06-23 05:52:00,
2013-06-23 02:02:00,47.0,-99.9,29.72,NNE,20,6.0,11.0,-999,-99.99,,,-99.99,,2013-06-23 06:02:00,
2013-06-23 02:12:00,47.0,-99.9,29.72,NNE,12,5.0,9.0,-999,-99.99,,,-99.99,,2013-06-23 06:12:00,
2013-06-23 02:22:00,47.0,-99.9,29.71,North,3,4.0,10.0,-999,-99.99,,,-99.99,,2013-06-23 06:22:00,
2013-06-23 02:33:00,47.0,-99.9,29.71,NNE,15,6.0,10.0,-999,-99.99,,,-99.99,,2013-06-23 06:33:00,
2013-06-23 02:43:00,47.0,-99.9,29.71,North,4,6.0,13.0,-999,-99.99,,,-99.99,,2013-06-23 06:43:00,
2013-06-23 02:52:00,46.0,-99.9,29.70,North,5,7.0,11.0,-999,-99.99,,,-99.99,,2013-06-23 06:52:00,
2013-06-23 03:02:00,47.0,-99.9,29.70,North,5,7.0,13.0,-999,-99.99,,,-99.99,,2013-06-23 07:02:00,
2013-06-23 03:12:00,47.0,-99.9,29.71,NNE,13,6.0,12.0,-999,-99.99,,,-99.99,,2013-06-23 07:12:00,
2013-06-23 03:34:00,46.0,-99.9,29.71,North,3,7.0,10.0,-999,-99.99,,,-99.99,,2013-06-23 07:34:00,
2013-06-23 03:43:00,46.0,-99.9,29.70,North,9,7.0,11.0,-999,-99.99,,,-99.99,,2013-06-23 07:43:00,
2013-06-23 03:53:00,47.0,-99.9,29.70,North,10,6.0,10.0,-999,-99.99,,,-99.99,,2013-06-23 07:53:00,
2013-06-23 04:02:00,46.0,-99.9,29.70,North,3,5.0,11.0,-999,-99.99,,,-99.99,,2013-06-23 08:02:00,
2013-06-23 04:34:00,46.0,-99.9,29.69,North,-999,5.0,10.0,-999,-99.99,,,-99.99,,2013-06-23 08:34:00,
2013-06-23 04:43:00,46.0,-99.9,29.69,North,10,5.0,10.0,-999,-99.99,,,-99.99,,2013-06-23 08:43:00,
2013-06-23 04:53:00,46.0,-99.9,29.69,North,1,4.0,9.0,-999,-99.99,,,-99.99,,2013-06-23 08:53:00,
2013-06-23 05:02:00,46.0,-99.9,29.69,North,3,6.0,8.0,-999,-99.99,,,-99.99,,2013-06-23 09:02:00,
2013-06-23 05:12:00,46.0,-99.9,29.68,NNE,13,6.0,10.0,-999,-99.99,,,-99.99,,2013-06-23 09:12:00,
2013-06-23 05:22:00,46.0,-99.9,29.68,NNE,12,4.0,9.0,-999,-99.99,,,-99.99,,2013-06-23 09:22:00,
2013-06-23 05:34:00,46.0,-99.9,29.68,North,360,7.0,10.0,-999,-99.99,,,-99.99,,2013-06-23 09:34:00,
2013-06-23 05:43:00,46.0,-99.9,29.67,North,4,9.0,12.0,-999,-99.99,,,-99.99,,2013-06-23 09:43:00,
2013-06-23 05:54:00,46.0,-99.9,29.67,North,1,5.0,12.0,-999,-99.99,,,-99.99,,2013-06-23 09:54:00,
2013-06-23 06:02:00,46.0,-99.9,29.67,North,1,6.0,10.0,-999,-99.99,,,-99.99,,2013-06-23 10:02:00,
2013-06-23 06:22:00,46.0,-99.9,29.67,North,1,7.0,9.0,-999,-99.99,,,-99.99,,2013-06-23 10:22:00,
2013-06-23 06:34:00,46.0,-99.9,29.66,North,356,4.0,6.0,-999,-99.99,,,-99.99,,2013-06-23 10:34:00,
2013-06-23 06:43:00,46.0,-99.9,29.66,North,359,7.0,11.0,-999,-99.99,,,-99.99,,2013-06-23 10:43:00,
2013-06-23 06:53:00,46.0,-99.9,29.66,North,-999,6.0,11.0,-999,-99.99,,,-99.99,,2013-06-23 10:53:00,
2013-06-23 07:02:00,46.0,-99.9,29.66,North,5,7.0,11.0,-999,-99.99,,,-99.99,,2013-06-23 11:02:00,
2013-06-23 07:11:00,46.0,-99.9,29.65,North,1,4.0,10.0,-999,-99.99,,,-99.99,,2013-06-23 11:11:00,
2013-06-23 07:22:00,46.0,-99.9,29.65,North,2,5.0,8.0,-999,-99.99,,,-99.99,,2013-06-23 11:22:00,
2013-06-23 07:33:00,46.0,-99.9,29.65,North,359,5.0,8.0,-999,-99.99,,,-99.99,,2013-06-23 11:33:00,
2013-06-23 07:43:00,46.0,-99.9,29.65,North,5,6.0,11.0,-999,-99.99,,,-99.99,,2013-06-23 11:43:00,
2013-06-23 07:53:00,47.0,-99.9,29.65,North,359,7.0,11.0,-999,-99.99,,,-99.99,,2013-06-23 11:53:00,
2013-06-23 08:01:00,46.0,-99.9,29.65,North,4,6.0,12.0,-999,-99.99,,,-99.99,,2013-06-23 12:01:00,
2013-06-23 08:12:00,46.0,-99.9,29.64,North,4,6.0,9.0,-999,-99.99,,,-99.99,,2013-06-23 12:12:00,
2013-06-23 08:53:00,46.0,-99.9,29.64,North,3,7.0,11.0,-999,-99.99,,,-99.99,,2013-06-23 12:53:00,
2013-06-23 09:02:00,46.0,-99.9,29.63,North,3,7.0,11.0,-999,-99.99,,,-99.99,,2013-06-23 13:02:00,
2013-06-23 09:34:00,46.0,-99.9,29.63,North,-999,5.0,9.0,-999,-99.99,,,-99.99,,2013-06-23 13:34:00,
2013-06-23 09:43:00,46.0,-99.9,29.63,North,6,8.0,17.0,-999,-99.99,,,-99.99,,2013-06-23 13:43:00,
2013-06-23 10:05:00,46.0,-99.9,29.63,North,356,6.0,10.0,-999,-99.99,,,-99.99,,2013-06-23 14:05:00,
2013-06-23 10:22:00,46.0,-99.9,29.63,North,-999,8.0,13.0,-999,-99.99,,,-99.99,,2013-06-23 14:22:00,
2013-06-23 10:34:00,46.0,-99.9,29.63,North,-999,8.0,13.0,-999,-99.99,,,-99.99,,2013-06-23 14:34:00,
2013-06-23 10:42:00,46.0,-99.9,29.62,North,4,10.0,14.0,-999,-99.99,,,-99.99,,2013-06-23 14:42:00,
2013-06-23 11:05:00,46.0,-99.9,29.62,North,4,8.0,13.0,-999,-99.99,,,-99.99,,2013-06-23 15:05:00,
2013-06-23 11:12:00,46.0,-99.9,29.62,North,4,8.0,13.0,-999,-99.99,,,-99.99,,2013-06-23 15:12:00,
2013-06-23 11:23:00,46.0,-99.9,29.62,North,4,10.0,14.0,-999,-99.99,,,-99.99,,2013-06-23 15:23:00,
2013-06-23 11:35:00,46.0,-99.9,29.62,North,4,10.0,14.0,-999,-99.99,,,-99.99,,2013-06-23 15:35:00,
2013-06-23 14:01:00,47.0,-99.9,29.62,North,5,8.0,16.0,-999,-99.99,,,-99.99,,2013-06-23 18:01:00,
2013-06-23 14:12:00,47.0,-99.9,29.61,North,3,9.0,13.0,-999,-99.99,,,-99.99,,2013-06-23 18:12:00,
2013-06-23 14:22:00,47.0,-99.9,29.61,North,3,9.0,13.0,-999,-99.99,,,-99.99,,2013-06-23 18:22:00,
2013-06-23 14:34:00,47.0,-99.9,29.61,North,6,9.0,14.0,-999,-99.99,,,-99.99,,2013-06-23 18:34:00,
2013-06-23 14:43:00,47.0,-99.9,29.61,North,3,10.0,13.0,-999,-99.99,,,-99.99,,2013-06-23 18:43:00,
2013-06-23 14:53:00,47.0,-99.9,29.61,North,2,9.0,14.0,-999,-99.99,,,-99.99,,2013-06-23 18:53:00,
2013-06-23 15:01:00,47.0,-99.9,29.61,North,3,9.0,18.0,-999,-99.99,,,-99.99,,2013-06-23 19:01:00,
2013-06-23 15:22:00,47.0,-99.9,29.61,North,5,8.0,16.0,-999,-99.99,,,-99.99,,2013-06-23 19:22:00,
2013-06-23 15:32:00,47.0,-99.9,29.61,North,6,10.0,15.0,-999,-99.99,,,-99.99,,2013-06-23 19:32:00,
2013-06-23 15:53:00,47.0,-99.9,29.61,North,3,10.0,14.0,-999,-99.99,,,-99.99,,2013-06-23 19:53:00,
2013-06-23 16:02:00,47.0,-99.9,29.61,North,-999,10.0,17.0,-999,-99.99,,,-99.99,,2013-06-23 20:02:00,
2013-06-23 16:12:00,48.0,-99.9,29.61,North,10,9.0,16.0,-999,-99.99,,,-99.99,,2013-06-23 20:12:00,
2013-06-23 16:34:00,48.0,-99.9,29.61,North,1,9.0,14.0,-999,-99.99,,,-99.99,,2013-06-23 20:34:00,
2013-06-23 16:42:00,48.0,-99.9,29.61,North,356,10.0,14.0,-999,-99.99,,,-99.99,,2013-06-23 20:42:00,
2013-06-23 16:53:00,48.0,-99.9,29.62,North,6,8.0,17.0,-999,-99.99,,,-99.99,,2013-06-23 20:53:00,
2013-06-23 17:01:00,48.0,-99.9,29.61,North,3,11.0,16.0,-999,-99.99,,,-99.99,,2013-06-23 21:01:00,
2013-06-23 17:12:00,48.0,-99.9,29.61,North,3,11.0,16.0,-999,-99.99,,,-99.99,,2013-06-23 21:12:00,
2013-06-23 17:22:00,48.0,-99.9,29.62,North,358,9.0,14.0,-999,-99.99,,,-99.99,,2013-06-23 21:22:00,
2013-06-23 17:34:00,48.0,-99.9,29.62,North,359,10.0,16.0,-999,-99.99,,,-99.99,,2013-06-23 21:34:00,
2013-06-23 17:44:00,48.0,-99.9,29.62,North,3,8.0,13.0,-999,-99.99,,,-99.99,,2013-06-23 21:44:00,
2013-06-23 17:52:00,49.0,-99.9,29.62,North,3,10.0,15.0,-999,-99.99,,,-99.99,,2013-06-23 21:52:00,
2013-06-23 18:01:00,48.0,-99.9,29.62,North,359,9.0,14.0,-999,-99.99,,,-99.99,,2013-06-23 22:01:00,
2013-06-23 18:12:00,49.0,-99.9,29.62,North,1,9.0,13.0,-999,-99.99,,,-99.99,,2013-06-23 22:12:00,
2013-06-23 18:22:00,49.0,-99.9,29.62,North,4,8.0,13.0,-999,-99.99,,,-99.99,,2013-06-23 22:22:00,
2013-06-23 18:33:00,49.0,-99.9,29.62,North,6,8.0,14.0,-999,-99.99,,,-99.99,,2013-06-23 22:33:00,
2013-06-23 18:43:00,48.0,-99.9,29.62,North,4,10.0,14.0,-999,-99.99,,,-99.99,,2013-06-23 22:43:00,
2013-06-23 18:53:00,48.0,-99.9,29.62,North,3,9.0,13.0,-999,-99.99,,,-99.99,,2013-06-23 22:53:00,
2013-06-23 19:01:00,49.0,-99.9,29.62,North,360,7.0,14.0,-999,-99.99,,,-99.99,,2013-06-23 23:01:00,
2013-06-23 19:33:00,48.0,-99.9,29.61,North,358,11.0,16.0,-999,-99.99,,,-99.99,,2013-06-23 23:33:00,
2013-06-23 19:44:00,48.0,-99.9,29.62,North,358,11.0,16.0,-999,-99.99,,,-99.99,,2013-06-23 23:44:00,
2013-06-23 19:52:00,48.0,-99.9,29.61,North,358,11.0,15.0,-999,-99.99,,,-99.99,,2013-06-23 23:52:00,
2013-06-23 20:01:00,48.0,-99.9,29.61,North,360,10.0,15.0,-999,-99.99,,,-99.99,,2013-06-24 00:01:00,
2013-06-23 20:33:00,48.0,-99.9,29.61,North,358,10.0,16.0,-999,-99.99,,,-99.99,,2013-06-24 00:33:00,
2013-06-23 20:43:00,48.0,-99.9,29.61,North,359,13.0,18.0,-999,-99.99,,,-99.99,,2013-06-24 00:43:00,
2013-06-23 20:52:00,48.0,-99.9,29.61,North,360,13.0,18.0,-999,-99.99,,,-99.99,,2013-06-24 00:52:00,
2013-06-23 21:02:00,48.0,-99.9,29.61,North,359,11.0,16.0,-999,-99.99,,,-99.99,,2013-06-24 01:02:00,
2013-06-23 21:11:00,48.0,-99.9,29.61,North,358,13.0,19.0,-999,-99.99,,,-99.99,,2013-06-24 01:11:00,
2013-06-23 21:32:00,48.0,-99.9,29.61,North,356,9.0,15.0,-999,-99.99,,,-99.99,,2013-06-24 01:32:00,
2013-06-23 21:42:00,48.0,-99.9,29.60,North,355,9.0,13.0,-999,-99.99,,,-99.99,,2013-06-24 01:42:00,
2013-06-23 21:53:00,48.0,-99.9,29.60,North,354,10.0,15.0,-999,-99.99,,,-99.99,,2013-06-24 01:53:00,
2013-06-23 22:02:00,48.0,-99.9,29.60,North,355,11.0,15.0,-999,-99.99,,,-99.99,,2013-06-24 02:02:00,
2013-06-23 22:22:00,48.0,-99.9,29.60,North,-999,10.0,15.0,-999,-99.99,,,-99.99,,2013-06-24 02:22:00,
2013-06-23 22:33:00,48.0,-99.9,29.60,North,358,11.0,15.0,-999,-99.99,,,-99.99,,2013-06-24 02:33:00,
2013-06-23 22:42:00,48.0,-99.9,29.60,North,357,10.0,14.0,-999,-99.99,,,-99.99,,2013-06-24 02:42:00,
2013-06-23 22:53:00,48.0,-99.9,29.60,North,357,10.0,16.0,-999,-99.99,,,-99.99,,2013-06-24 02:53:00,
2013-06-23 23:01:00,48.0,-99.9,29.60,North,356,11.0,17.0,-999,-99.99,,,-99.99,,2013-06-24 03:01:00,
2013-06-23 23:11:00,48.0,-99.9,29.60,North,356,11.0,17.0,-999,-99.99,,,-99.99,,2013-06-24 03:11:00,
2013-06-23 23:43:00,48.0,-99.9,29.61,North,358,11.0,15.0,-999,-99.99,,,-99.99,,2013-06-24 03:43:00,
2013-06-23 23:53:00,48.0,-99.9,29.61,North,356,10.0,16.0,-999,-99.99,,,-99.99,,2013-06-24 03:53:00,